Location: Gadern
(49.5873°N, 8.8138°E)
Time: 05:52:56
(UTC+00:00)

Cosmos 2074 Rocket - Pass Details

Date: 19 May 2025
Orbit: 965 x 986 km, 82.9° (Epoch: 22 June)

Event Time Altitude Azimuth Distance (km) Brightness Sun altitude
Rises 19:39:28 0° 350° (N) 3,681 7.9 -4.9°
Reaches altitude 10° 19:42:00 10° 350° (N) 2,727 7.2 -5.2°
Maximum altitude 19:48:15 88° 263° (W) 976 4.1 -6.0°
Drops below altitude 10° 19:54:27 10° 174° (S) 2,699 5.9 -6.8°
Sets 19:56:56 0° 174° (S) 3,641 6.5 -7.1°
